Jamestown, ND

10:15 AM CDT on August 18, 2017 (GMT -0500)
Jamestown Municipal

Weather History for KJMS - February, 2013

Change the Weather History Date:

Monday, February 4, 2013

  Actual Average Record
Temperature  
Mean Temperature 14 °F 12 °F  
Max Temperature 34 °F 22 °F 54 °F (1990)
Min Temperature -6 °F 2 °F -38 °F (1907)
Degree Days  
Heating Degree Days 51 53  
Month to date heating degree days 229 214  
Since 1 July heating degree days 5556 5576  
Cooling Degree Days 0 0  
Month to date cooling degree days 0 0  
Year to date cooling degree days 0 0  
Moisture  
Dew Point 11 °F    
Average Humidity 80    
Maximum Humidity 88    
Minimum Humidity 72    
Precipitation  
Precipitation T in 0.01 in 0.26 in (1974)
Month to date precipitation 0.09 0.04  
Year to date precipitation 0.10 0.49  
Sea Level Pressure  
Sea Level Pressure 29.82 in    
Wind  
Wind Speed 10 mph (SSW)    
Max Wind Speed 21 mph    
Max Gust Speed 25 mph    
Visibility 8 miles    
Events Snow    
T = Trace of Precipitation, MM = Missing Value Source: NWS Daily Summary

Daily Weather History Graph

Daily Weather History Graph

Search for Another Location

Airport or City:

Trip Planner

Search our weather history database for the weather conditions in past years. The results will help you decide how hot, cold, wet, or windy it might be!

Date:

Astronomy

Feb. 04, 2013 Rise Set
Actual Time 7:55 AM CST 5:42 PM CST
Civil Twilight 7:22 AM CST 6:15 PM CST
Nautical Twilight 6:46 AM CST 6:51 PM CST
Astronomical Twilight 6:11 AM CST 7:26 PM CST
Moon 2:37 AM CST (2/4) 12:02 PM CST (2/4)
Length of Visible Light 10h 52m
Length of Day
9h 47m
Last Quarter, 37% of the Moon is Illuminated
Feb 4
Last Quarter
Feb 10
New
Feb 17
First Quarter
Feb 25
Full
Mar 4
Last Quarter

Hourly Weather History & Observations

Time (CST) Temp. Windchill Dew Point Humidity Pressure Visibility Wind Dir Wind Speed Gust Speed Precip Events Conditions
12:56 AM 3.9 °F - -0.9 °F 80% 30.09 in 10.0 mi Calm Calm - N/A   Overcast
1:56 AM 1.9 °F - -2.0 °F 83% 30.09 in 10.0 mi Calm Calm - N/A   Clear
2:56 AM -4.0 °F - -8.0 °F 83% 30.11 in 10.0 mi Calm Calm - N/A   Mostly Cloudy
4:56 AM 1.9 °F -7.6 °F -2.9 °F 80% 30.09 in 10.0 mi South 4.6 mph - N/A   Overcast
5:56 AM 1.9 °F -11.8 °F -2.0 °F 83% 30.06 in 10.0 mi South 8.1 mph - N/A   Overcast
6:56 AM 3.9 °F -8.2 °F -0.0 °F 84% 30.07 in 10.0 mi South 6.9 mph - N/A   Overcast
7:56 AM 3.9 °F -8.2 °F -0.0 °F 84% 30.06 in 10.0 mi South 6.9 mph - N/A   Overcast
8:25 AM 1.4 °F -11.3 °F -2.2 °F 85% 29.92 in 10.0 mi SSE 6.9 mph - N/A   Mostly Cloudy
8:56 AM 3.9 °F -13.0 °F -0.0 °F 84% 30.03 in 10.0 mi South 12.7 mph - N/A   Overcast
9:56 AM 7.0 °F -9.1 °F 1.9 °F 80% 29.99 in 10.0 mi South 12.7 mph - N/A   Overcast
10:56 AM 9.0 °F -3.2 °F 3.9 °F 80% 29.98 in 10.0 mi South 8.1 mph - N/A   Overcast
11:06 AM 10.4 °F -2.4 °F 3.2 °F 73% 29.86 in 10.0 mi South 9.2 mph - N/A   Overcast
11:29 AM 10.4 °F -1.5 °F 6.8 °F 85% 29.86 in 10.0 mi South 8.1 mph - N/A   Overcast
11:56 AM 12.9 °F -0.2 °F 7.0 °F 77% 29.94 in 10.0 mi South 10.4 mph - N/A   Overcast
12:36 PM 15.8 °F 2.7 °F 10.4 °F 79% 29.80 in 10.0 mi South 11.5 mph - N/A   Mostly Cloudy
12:45 PM 15.8 °F 2.1 °F 10.4 °F 79% 29.79 in 10.0 mi South 12.7 mph - N/A   Scattered Clouds
12:56 PM 16.0 °F 2.9 °F 10.0 °F 77% 29.89 in 10.0 mi South 11.5 mph - N/A   Scattered Clouds
1:56 PM 19.9 °F 6.7 °F 14.0 °F 78% 29.83 in 10.0 mi South 13.8 mph - N/A   Overcast
2:56 PM 18.0 °F 3.6 °F 12.9 °F 81% 29.80 in 10.0 mi South 15.0 mph - N/A   Overcast
3:56 PM 21.9 °F 8.7 °F 17.1 °F 82% 29.77 in 6.0 mi South 15.0 mph - 0.00 in Snow Light Snow
4:03 PM 21.2 °F 7.8 °F 15.8 °F 80% 29.66 in 1.8 mi South 15.0 mph - 0.00 in Snow Light Snow
4:10 PM 21.2 °F 6.8 °F 17.6 °F 86% 29.65 in 0.8 mi SSW 17.3 mph - 0.00 in Snow Light Snow
4:53 PM 21.2 °F 6.4 °F 19.4 °F 93% 29.63 in 1.2 mi SSW 18.4 mph 24.2 mph 0.00 in Snow Light Snow
4:56 PM 23.0 °F 8.3 °F 19.0 °F 85% 29.72 in 1.5 mi SSW 19.6 mph - 0.00 in Snow Light Snow
5:04 PM 23.0 °F 10.1 °F 19.4 °F 86% 29.62 in 2.0 mi SSW 15.0 mph - 0.00 in Snow Light Snow
5:12 PM 23.0 °F 9.2 °F 19.4 °F 86% 29.62 in 3.0 mi SSW 17.3 mph - 0.00 in   Overcast
5:24 PM 23.0 °F 10.1 °F 19.4 °F 86% 29.62 in 2.0 mi SSW 15.0 mph - 0.00 in Snow Light Snow
5:38 PM 24.8 °F 11.9 °F 21.2 °F 86% 29.61 in 9.0 mi SSW 16.1 mph - 0.00 in   Overcast
5:56 PM 24.1 °F 12.0 °F 21.0 °F 88% 29.70 in 10.0 mi SSW 13.8 mph - 0.00 in   Overcast
7:56 PM 27.0 °F 16.1 °F 23.0 °F 85% 29.65 in 10.0 mi SW 12.7 mph - N/A   Clear
8:56 PM 30.0 °F 19.5 °F 24.1 °F 79% 29.63 in 10.0 mi West 13.8 mph - N/A   Clear
9:56 PM 32.0 °F 21.6 °F 25.0 °F 75% 29.63 in 10.0 mi West 15.0 mph - N/A   Partly Cloudy
10:56 PM 32.0 °F 22.5 °F 25.0 °F 75% 29.63 in 10.0 mi WNW 12.7 mph 21.9 mph N/A   Scattered Clouds
11:56 PM 34.0 °F 25.0 °F 28.9 °F 82% 29.63 in 9.0 mi West 12.7 mph - 0.00 in   Overcast